NJE4SG LIMJ-EDFE

Flight info

Callsign NJE4SG
Flight time 1h 1m
Altitude 32000
Route LAGEN DCT ABESI DCT LADOL T163 KOVAN/N0432F240 T163 SUKON
Aircraft C25C/M-SDE2E3FGHRWXY/LB1

Departure

Time 2026-05-04 07:04
Airport Genoa Cristoforo Colombo Airport (LIMJ)

Arrival

Time 2026-05-04 08:06
Airport Frankfurt-Egelsbach Airport (EDFE)
Time Latitude Longitude Altitude Speed Heading
2026-05-04 06:57 44.41783 8.85288 12 ft 0 kts 322°
2026-05-04 06:59 44.41800 8.85262 12 ft 7 kts 291°
2026-05-04 06:59 44.41779 8.85203 12 ft 9 kts 224°
2026-05-04 07:01 44.41364 8.84120 10 ft 22 kts 286°
2026-05-04 07:01 44.41404 8.83921 13 ft 21 kts 285°
2026-05-04 07:02 44.41436 8.83728 13 ft 20 kts 286°
2026-05-04 07:02 44.41479 8.83531 15 ft 22 kts 287°
2026-05-04 07:02 44.41518 8.83325 17 ft 22 kts 285°
2026-05-04 07:02 44.41557 8.83124 18 ft 22 kts 284°
2026-05-04 07:03 44.41601 8.82899 14 ft 25 kts 286°
2026-05-04 07:03 44.41651 8.82653 11 ft 27 kts 285°
2026-05-04 07:03 44.41590 8.82488 9 ft 22 kts 194°
2026-05-04 07:03 44.41523 8.82509 10 ft 0 kts 104°
2026-05-04 07:04 44.41508 8.82589 12 ft 47 kts 105°
2026-05-04 07:04 44.41313 8.83590 114 ft 153 kts 104°
2026-05-04 07:04 44.41012 8.85343 716 ft 214 kts 103°
2026-05-04 07:05 44.40299 8.87432 1380 ft 273 kts 133°
2026-05-04 07:05 44.38754 8.88689 2226 ft 236 kts 160°
2026-05-04 07:05 44.37158 8.89392 3312 ft 244 kts 162°
2026-05-04 07:05 44.35542 8.90083 4789 ft 245 kts 160°
2026-05-04 07:06 44.32244 8.91761 7179 ft 258 kts 160°
2026-05-04 07:06 44.30545 8.92624 8355 ft 262 kts 161°
2026-05-04 07:06 44.29012 8.93379 9403 ft 265 kts 162°
2026-05-04 07:07 44.27188 8.93670 10548 ft 267 kts 186°
2026-05-04 07:08 44.24578 8.78314 15868 ft 366 kts 304°
2026-05-04 07:09 44.26128 8.75478 16649 ft 368 kts 304°
2026-05-04 07:09 44.27646 8.72566 17343 ft 374 kts 303°
2026-05-04 07:09 44.29165 8.69594 18025 ft 379 kts 303°
2026-05-04 07:09 44.30719 8.66583 18673 ft 385 kts 304°
2026-05-04 07:10 44.32300 8.63566 19343 ft 387 kts 304°
2026-05-04 07:10 44.33888 8.60506 20041 ft 389 kts 304°
2026-05-04 07:12 44.50890 8.53228 24439 ft 428 kts 12°
2026-05-04 07:12 44.53799 8.54147 24934 ft 431 kts 11°
2026-05-04 07:12 44.56761 8.55015 25360 ft 434 kts 10°
2026-05-04 07:12 44.58724 8.55588 25644 ft 436 kts 10°
2026-05-04 07:13 44.61707 8.56482 26046 ft 440 kts 11°
2026-05-04 07:13 44.64707 8.57397 26429 ft 443 kts 11°
2026-05-04 07:13 44.67731 8.58315 26789 ft 445 kts 10°
2026-05-04 07:14 44.80013 8.62026 28431 ft 458 kts 10°
2026-05-04 07:14 44.83137 8.62977 29034 ft 458 kts 10°
2026-05-04 07:15 44.86253 8.63918 29676 ft 457 kts 10°
2026-05-04 07:15 44.89368 8.64868 30292 ft 457 kts 10°
2026-05-04 07:15 44.92467 8.65810 30825 ft 456 kts 10°
2026-05-04 07:15 44.95557 8.66753 31374 ft 454 kts 10°
2026-05-04 07:16 44.98647 8.67695 31900 ft 452 kts 10°
2026-05-04 07:16 45.01727 8.68635 32080 ft 455 kts 10°
2026-05-04 07:16 45.07919 8.70528 32096 ft 457 kts 10°
2026-05-04 07:17 45.14107 8.72425 32094 ft 453 kts 10°
2026-05-04 07:17 45.20262 8.74317 32097 ft 450 kts 10°
2026-05-04 07:18 45.26379 8.76202 32095 ft 448 kts 10°
2026-05-04 07:18 45.32474 8.78081 32094 ft 447 kts 10°
2026-05-04 07:19 45.38504 8.79949 32095 ft 446 kts 10°
2026-05-04 07:19 45.44568 8.81827 32118 ft 445 kts 10°
2026-05-04 07:20 45.50625 8.83710 32122 ft 445 kts 10°
2026-05-04 07:20 45.56672 8.85592 32121 ft 445 kts 10°
2026-05-04 07:22 45.80787 8.93141 32122 ft 444 kts 10°
2026-05-04 07:23 45.86820 8.95040 32126 ft 444 kts 10°
2026-05-04 07:23 45.92860 8.96947 32122 ft 442 kts 10°
2026-05-04 07:24 45.98869 8.98845 32128 ft 443 kts 10°
2026-05-04 07:24 46.04889 9.00751 32129 ft 443 kts 10°
2026-05-04 07:26 46.29228 9.03718 32133 ft 440 kts 355°
2026-05-04 07:27 46.35319 9.03443 32132 ft 441 kts 355°
2026-05-04 07:27 46.41464 9.03180 32131 ft 442 kts 355°
2026-05-04 07:28 46.47614 9.02909 32130 ft 442 kts 355°
2026-05-04 07:28 46.53767 9.02642 32116 ft 441 kts 355°
2026-05-04 07:29 46.59874 9.02378 32113 ft 442 kts 355°
2026-05-04 07:29 46.66020 9.02109 32103 ft 442 kts 355°
2026-05-04 07:30 46.72177 9.01838 32096 ft 442 kts 355°
2026-05-04 07:30 46.77128 9.01623 32082 ft 443 kts 354°
2026-05-04 07:31 46.83394 9.01344 32078 ft 456 kts 355°
2026-05-04 07:33 47.09184 9.00216 32034 ft 435 kts 354°
2026-05-04 07:33 47.12161 9.00083 32029 ft 421 kts 354°
2026-05-04 07:33 47.15076 8.99944 32026 ft 421 kts 354°
2026-05-04 07:34 47.21031 8.99676 32028 ft 435 kts 354°
2026-05-04 07:34 47.27159 8.99407 32040 ft 446 kts 354°
2026-05-04 07:35 47.33430 8.99124 32048 ft 453 kts 354°
2026-05-04 07:35 47.39772 8.98839 32047 ft 458 kts 354°
2026-05-04 07:36 47.46138 8.98553 32048 ft 462 kts 354°
2026-05-04 07:38 47.68626 8.97541 32038 ft 444 kts 354°
2026-05-04 07:38 47.71687 8.97404 32033 ft 436 kts 354°
2026-05-04 07:38 47.77633 8.97129 32023 ft 424 kts 354°
2026-05-04 07:39 47.83467 8.96864 32022 ft 416 kts 354°
2026-05-04 07:39 47.89214 8.96597 32019 ft 410 kts 354°
2026-05-04 07:40 47.94891 8.96337 32021 ft 406 kts 354°
2026-05-04 07:40 48.00535 8.96079 32016 ft 404 kts 354°
2026-05-04 07:41 48.06135 8.95821 32012 ft 402 kts 354°
2026-05-04 07:41 48.11722 8.95562 32015 ft 401 kts 354°
2026-05-04 07:42 48.17292 8.95428 32011 ft 403 kts
2026-05-04 07:42 48.22848 8.96274 32018 ft 402 kts
2026-05-04 07:43 48.28431 8.97106 32019 ft 403 kts
2026-05-04 07:43 48.34014 8.97964 32014 ft 402 kts
2026-05-04 07:44 48.37708 8.98520 32015 ft 402 kts
2026-05-04 07:44 48.43195 8.99348 31649 ft 431 kts
2026-05-04 07:45 48.45877 8.99756 31260 ft 450 kts
2026-05-04 07:45 48.49059 9.00246 30831 ft 468 kts
2026-05-04 07:45 48.52350 9.00749 30409 ft 483 kts
2026-05-04 07:45 48.55645 9.01262 29979 ft 466 kts
2026-05-04 07:46 48.58812 9.01752 29477 ft 446 kts
2026-05-04 07:46 48.61843 9.02215 28981 ft 431 kts
2026-05-04 07:46 48.64797 9.02825 28482 ft 426 kts
2026-05-04 07:46 48.67775 9.03549 27998 ft 444 kts
2026-05-04 07:47 48.70906 9.04282 27529 ft 463 kts
2026-05-04 07:47 48.74103 9.05037 27069 ft 464 kts
2026-05-04 07:47 48.77278 9.05805 26617 ft 460 kts
2026-05-04 07:49 48.99114 9.10004 23606 ft 442 kts
2026-05-04 07:49 49.02168 9.10419 23119 ft 439 kts
2026-05-04 07:49 49.05202 9.10838 22634 ft 437 kts
2026-05-04 07:50 49.08225 9.11275 22177 ft 435 kts
2026-05-04 07:50 49.11213 9.11717 22040 ft 426 kts
2026-05-04 07:50 49.14099 9.12129 22022 ft 419 kts
2026-05-04 07:50 49.17011 9.12539 22022 ft 423 kts
2026-05-04 07:51 49.19991 9.12967 22026 ft 426 kts
2026-05-04 07:51 49.22924 9.13390 21779 ft 434 kts
2026-05-04 07:51 49.25914 9.13809 21313 ft 422 kts
2026-05-04 07:51 49.28779 9.14224 20851 ft 406 kts
2026-05-04 07:52 49.31564 9.14618 20407 ft 400 kts
2026-05-04 07:52 49.34336 9.15015 19955 ft 397 kts
2026-05-04 07:52 49.37081 9.15399 19523 ft 394 kts
2026-05-04 07:52 49.39804 9.15790 19092 ft 392 kts
2026-05-04 07:53 49.42511 9.16185 18669 ft 389 kts
2026-05-04 07:54 49.61011 9.18844 14813 ft 367 kts
2026-05-04 07:55 49.63534 9.19201 14190 ft 359 kts
2026-05-04 07:55 49.65997 9.19287 13534 ft 348 kts 349°
2026-05-04 07:55 49.68011 9.18352 12913 ft 329 kts 337°
2026-05-04 07:55 49.70105 9.17170 12244 ft 313 kts 336°
2026-05-04 07:56 49.72089 9.15944 11575 ft 301 kts 335°
2026-05-04 07:56 49.74007 9.14781 10928 ft 292 kts 336°
2026-05-04 07:56 49.75880 9.13666 10219 ft 284 kts 336°
2026-05-04 07:56 49.77694 9.12603 9468 ft 275 kts 336°
2026-05-04 07:57 49.79452 9.11556 8693 ft 269 kts 336°
2026-05-04 07:57 49.81184 9.10517 7922 ft 264 kts 336°
2026-05-04 07:57 49.82887 9.09482 7135 ft 261 kts 336°
2026-05-04 07:57 49.84576 9.08503 6357 ft 257 kts 337°
2026-05-04 07:58 49.86237 9.07501 5550 ft 255 kts 336°
2026-05-04 07:58 49.87775 9.06580 5036 ft 247 kts 336°
2026-05-04 07:58 49.89295 9.05673 4885 ft 226 kts 336°
2026-05-04 07:58 49.90724 9.04810 4489 ft 220 kts 334°
2026-05-04 07:59 49.91874 9.03375 4089 ft 211 kts 302°
2026-05-04 07:59 49.92400 9.01303 3699 ft 205 kts 277°
2026-05-04 07:59 49.92609 8.99130 3316 ft 202 kts 277°
2026-05-04 07:59 49.92944 8.97028 2930 ft 199 kts 288°
2026-05-04 08:00 49.93509 8.95075 2557 ft 198 kts 293°
2026-05-04 08:00 49.94075 8.93195 2197 ft 186 kts 293°
2026-05-04 08:00 49.94593 8.91534 2043 ft 153 kts 294°
2026-05-04 08:02 49.96991 8.83526 1997 ft 129 kts 268°
2026-05-04 08:02 49.96942 8.82131 2004 ft 133 kts 268°
2026-05-04 08:02 49.96914 8.80687 1923 ft 131 kts 265°
2026-05-04 08:03 49.96887 8.79315 1842 ft 125 kts 268°
2026-05-04 08:03 49.96832 8.77994 1740 ft 122 kts 264°
2026-05-04 08:03 49.96746 8.76699 1617 ft 117 kts 264°
2026-05-04 08:03 49.96674 8.75460 1497 ft 113 kts 263°
2026-05-04 08:04 49.96602 8.74246 1380 ft 112 kts 264°
2026-05-04 08:04 49.96541 8.73037 1270 ft 113 kts 266°
2026-05-04 08:04 49.96477 8.71835 1223 ft 108 kts 263°
2026-05-04 08:04 49.96419 8.70683 1144 ft 108 kts 263°
2026-05-04 08:05 49.96345 8.69525 1015 ft 106 kts 264°
2026-05-04 08:05 49.96290 8.68393 860 ft 104 kts 263°
2026-05-04 08:05 49.96248 8.67275 746 ft 100 kts 263°
2026-05-04 08:05 49.96189 8.66229 579 ft 96 kts 263°
2026-05-04 08:06 49.96137 8.65212 435 ft 91 kts 263°
2026-05-04 08:06 49.96092 8.64338 390 ft 59 kts 266°
2026-05-04 08:06 49.96071 8.63936 389 ft 23 kts 266°
2026-05-04 08:06 49.96077 8.63785 388 ft 7 kts 325°
2026-05-04 08:08 49.96199 8.64224 389 ft 3 kts 82°
2026-05-04 08:08 49.96199 8.64226 389 ft 0 kts 83°